| time (UTC) | temp F | wind direction | speed MPH | gust MPH | rain 1hr in | rain 24hr in | rain mn in | humidity % | barometer mb |
| 20260509111312 | 56 | 79 | 0.0 | 1.0 | 0.00 | 0.00 | 0.00 | 81 | 1012.0 |
| 20260509110331 | 56 | 175 | 0.0 | 0.0 | 0.00 | 0.00 | 0.00 | 81 | 1011.9 |
| 20260509105328 | 56 | 103 | 0.0 | 0.0 | 0.00 | 0.00 | 0.00 | 81 | 1011.9 |
| 20260509104318 | 56 | 63 | 0.0 | 2.0 | 0.00 | 0.00 | 0.00 | 81 | 1011.9 |
| 20260509103317 | 55 | 123 | 0.0 | 1.0 | 0.00 | 0.00 | 0.00 | 80 | 1011.9 |
| 20260509102334 | 55 | 115 | 0.0 | 0.0 | 0.00 | 0.00 | 0.00 | 80 | 1011.8 |
| 20260509101312 | 55 | 330 | 0.0 | 1.0 | 0.00 | 0.00 | 0.00 | 79 | 1011.8 |
| 20260509100322 | 55 | 326 | 0.0 | 2.0 | 0.00 | 0.00 | 0.00 | 78 | 1011.8 |
| 20260509095348 | 55 | 359 | 0.0 | 2.0 | 0.00 | 0.00 | 0.00 | 78 | 1011.7 |
| 20260509094343 | 55 | 141 | 0.0 | 0.0 | 0.00 | 0.00 | 0.00 | 77 | 1011.7 |
| 20260509093312 | 55 | 148 | 0.0 | 1.0 | 0.00 | 0.00 | 0.00 | 76 | 1011.7 |
| 20260509092311 | 56 | 117 | 0.0 | 1.0 | 0.00 | 0.00 | 0.00 | 76 | 1011.7 |
| 20260509091326 | 56 | 125 | 0.0 | 1.0 | 0.00 | 0.00 | 0.00 | 74 | 1011.7 |
| 20260509090317 | 56 | 105 | 0.0 | 1.0 | 0.00 | 0.00 | 0.00 | 74 | 1011.8 |
| 20260509085311 | 56 | 330 | 0.0 | 1.0 | 0.00 | 0.00 | 0.00 | 74 | 1011.8 |
| 20260509084330 | 56 | 127 | 0.0 | 3.0 | 0.00 | 0.00 | 0.00 | 73 | 1011.8 |
| 20260509083347 | 56 | 148 | 0.0 | 3.0 | 0.00 | 0.00 | 0.00 | 73 | 1011.8 |
| 20260509082322 | 56 | 151 | 0.0 | 2.0 | 0.00 | 0.00 | 0.00 | 73 | 1011.8 |
| 20260509081318 | 56 | 103 | 0.0 | 2.0 | 0.00 | 0.00 | 0.00 | 73 | 1012.0 |
| 20260509080315 | 56 | 86 | 0.0 | 2.0 | 0.00 | 0.00 | 0.00 | 73 | 1011.8 |
| 20260509075333 | 56 | 129 | 0.0 | 1.0 | 0.00 | 0.00 | 0.00 | 72 | 1012.0 |
| 20260509074328 | 56 | 139 | 0.0 | 3.0 | 0.00 | 0.00 | 0.00 | 72 | 1012.1 |
| 20260509073319 | 56 | 126 | 0.0 | 4.0 | 0.00 | 0.00 | 0.00 | 70 | 1012.1 |
| 20260509072316 | 56 | 112 | 0.0 | 3.0 | 0.00 | 0.00 | 0.00 | 69 | 1012.2 |
| 20260509071317 | 57 | 149 | 0.0 | 1.0 | 0.00 | 0.00 | 0.00 | 68 | 1012.2 |
| 20260509070333 | 57 | 155 | 0.0 | 2.0 | 0.00 | 0.00 | 0.00 | 66 | 1012.2 |
| 20260509065329 | 57 | 345 | 0.0 | 4.0 | 0.00 | 0.00 | 0.00 | 65 | 1012.2 |
| 20260509064319 | 58 | 167 | 0.0 | 2.0 | 0.00 | 0.00 | 0.00 | 65 | 1012.3 |
| 20260509063315 | 58 | 203 | 0.0 | 1.0 | 0.00 | 0.00 | 0.00 | 65 | 1012.5 |
| 20260509062333 | 58 | 133 | 1.0 | 2.0 | 0.00 | 0.00 | 0.00 | 65 | 1012.6 |
| 20260509061331 | 58 | 291 | 0.0 | 1.0 | 0.00 | 0.00 | 0.00 | 64 | 1012.7 |
| 20260509060320 | 58 | 110 | 0.0 | 2.0 | 0.00 | 0.00 | 0.00 | 63 | 1012.7 |
| 20260509055316 | 59 | 158 | 0.0 | 0.0 | 0.00 | 0.00 | 0.00 | 62 | 1012.8 |
| 20260509054312 | 59 | 158 | 0.0 | 2.0 | 0.00 | 0.00 | 0.00 | 60 | 1012.7 |
| 20260509053328 | 59 | 142 | 0.0 | 2.0 | 0.00 | 0.00 | 0.00 | 61 | 1012.9 |
| 20260509052325 | 60 | 347 | 0.0 | 2.0 | 0.00 | 0.00 | 0.00 | 59 | 1013.0 |
| 20260509051313 | 60 | 333 | 0.0 | 1.0 | 0.00 | 0.00 | 0.00 | 59 | 1013.1 |
| 20260509050311 | 60 | 131 | 0.0 | 5.0 | 0.00 | 0.00 | 0.00 | 58 | 1013.1 |
| 20260509045308 | 60 | 128 | 0.0 | 3.0 | 0.00 | 0.00 | 0.00 | 59 | 1013.1 |
| 20260509044326 | 60 | 81 | 0.0 | 4.0 | 0.00 | 0.00 | 0.00 | 58 | 1013.1 |
| 20260509043318 | 60 | 139 | 0.0 | 2.0 | 0.00 | 0.00 | 0.00 | 58 | 1013.0 |
| 20260509042317 | 60 | 82 | 0.0 | 0.0 | 0.00 | 0.00 | 0.00 | 58 | 1012.9 |
| 20260509041319 | 60 | 312 | 0.0 | 1.0 | 0.00 | 0.00 | 0.00 | 57 | 1012.9 |
| 20260509040329 | 60 | 205 | 0.0 | 3.0 | 0.00 | 0.00 | 0.00 | 59 | 1013.0 |
| 20260509035331 | 60 | 113 | 0.0 | 0.0 | 0.00 | 0.00 | 0.00 | 59 | 1013.0 |
| 20260509034322 | 60 | 84 | 0.0 | 1.0 | 0.00 | 0.00 | 0.00 | 60 | 1013.1 |
| 20260509033319 | 60 | 84 | 0.0 | 1.0 | 0.00 | 0.00 | 0.00 | 59 | 1013.0 |
| 20260509032334 | 59 | 290 | 0.0 | 0.0 | 0.00 | 0.00 | 0.00 | 62 | 1013.1 |
| 20260509031331 | 60 | 290 | 0.0 | 1.0 | 0.00 | 0.00 | 0.00 | 61 | 1013.1 |
| 20260509030322 | 59 | 137 | 0.0 | 0.0 | 0.00 | 0.00 | 0.00 | 59 | 1012.9 |
| 20260509025340 | 60 | 137 | 0.0 | 0.0 | 0.00 | 0.00 | 0.00 | 59 | 1012.8 |
| 20260509024314 | 60 | 137 | 0.0 | 0.0 | 0.00 | 0.00 | 0.00 | 57 | 1012.9 |
| 20260509023333 | 60 | 137 | 0.0 | 0.0 | 0.00 | 0.00 | 0.00 | 57 | 1013.0 |
| 20260509022308 | 61 | 137 | 0.0 | 0.0 | 0.00 | 0.00 | 0.00 | 56 | 1013.0 |
| 20260509021310 | 61 | 137 | 0.0 | 0.0 | 0.00 | 0.00 | 0.00 | 55 | 1013.0 |
| 20260509020308 | 61 | 137 | 0.0 | 0.0 | 0.00 | 0.00 | 0.00 | 55 | 1012.9 |
| 20260509015339 | 61 | 137 | 0.0 | 0.0 | 0.00 | 0.00 | 0.00 | 53 | 1012.8 |
| 20260509014341 | 61 | 137 | 0.0 | 0.0 | 0.00 | 0.00 | 0.00 | 56 | 1012.7 |
| 20260509013320 | 61 | 137 | 0.0 | 0.0 | 0.00 | 0.00 | 0.00 | 54 | 1012.8 |
| 20260509012322 | 61 | 137 | 0.0 | 0.0 | 0.00 | 0.00 | 0.00 | 53 | 1012.7 |
| 20260509011325 | 61 | 137 | 0.0 | 0.0 | 0.00 | 0.00 | 0.00 | 54 | 1012.4 |
| 20260509010327 | 61 | 119 | 0.0 | 0.0 | 0.00 | 0.00 | 0.00 | 52 | 1012.3 |
| 20260509005310 | 61 | 123 | 0.0 | 0.0 | 0.00 | 0.00 | 0.00 | 53 | 1012.1 |
| 20260509004331 | 61 | 123 | 0.0 | 0.0 | 0.00 | 0.00 | 0.00 | 52 | 1011.9 |
| 20260509003324 | 61 | 123 | 0.0 | 0.0 | 0.00 | 0.00 | 0.00 | 51 | 1011.7 |
| 20260509002323 | 61 | 123 | 0.0 | 0.0 | 0.00 | 0.00 | 0.00 | 54 | 1011.6 |
| 20260509001327 | 62 | 123 | 0.0 | 0.0 | 0.00 | 0.00 | 0.00 | 53 | 1011.5 |
| 20260509000323 | 62 | 123 | 0.0 | 0.0 | 0.00 | 0.00 | 0.00 | 51 | 1011.4 |
| 20260508235323 | 62 | 123 | 0.0 | 0.0 | 0.00 | 0.00 | 0.00 | 50 | 1011.3 |
| 20260508234327 | 63 | 123 | 0.0 | 0.0 | 0.00 | 0.00 | 0.00 | 49 | 1011.3 |
| 20260508233342 | 63 | 123 | 0.0 | 0.0 | 0.00 | 0.00 | 0.00 | 48 | 1011.3 |
| 20260508232322 | 64 | 123 | 0.0 | 0.0 | 0.00 | 0.00 | 0.00 | 47 | 1011.2 |
| 20260508231324 | 65 | 123 | 0.0 | 0.0 | 0.00 | 0.00 | 0.00 | 44 | 1011.0 |
| 20260508230323 | 65 | 123 | 0.0 | 0.0 | 0.00 | 0.00 | 0.00 | 43 | 1010.9 |
| 20260508225310 | 65 | 123 | 0.0 | 0.0 | 0.00 | 0.00 | 0.00 | 44 | 1010.9 |
| 20260508224333 | 66 | 21 | 0.0 | 1.0 | 0.00 | 0.00 | 0.00 | 40 | 1010.8 |
| 20260508223308 | 66 | 39 | 0.0 | 3.0 | 0.00 | 0.00 | 0.00 | 39 | 1010.8 |
| 20260508222311 | 66 | 325 | 0.0 | 2.0 | 0.00 | 0.00 | 0.00 | 40 | 1010.8 |
| 20260508221314 | 67 | 133 | 0.0 | 2.0 | 0.00 | 0.00 | 0.00 | 40 | 1010.9 |
| 20260508220333 | 67 | 7 | 0.0 | 5.0 | 0.00 | 0.00 | 0.00 | 40 | 1010.9 |
| 20260508215334 | 67 | 100 | 0.0 | 2.0 | 0.00 | 0.00 | 0.00 | 40 | 1010.9 |
| 20260508214329 | 67 | 290 | 1.0 | 5.0 | 0.00 | 0.00 | 0.00 | 37 | 1010.8 |
| 20260508213333 | 68 | 243 | 0.0 | 6.0 | 0.00 | 0.00 | 0.00 | 37 | 1010.8 |
| 20260508212312 | 69 | 273 | 1.0 | 6.0 | 0.00 | 0.00 | 0.00 | 35 | 1010.7 |
| 20260508211310 | 69 | 297 | 1.0 | 6.0 | 0.00 | 0.00 | 0.00 | 35 | 1010.9 |
| 20260508210336 | 69 | 139 | 1.0 | 7.0 | 0.00 | 0.00 | 0.00 | 38 | 1011.0 |
| 20260508205311 | 67 | 13 | 2.0 | 10.0 | 0.00 | 0.00 | 0.00 | 36 | 1011.0 |
| 20260508204311 | 66 | 146 | 1.0 | 8.0 | 0.00 | 0.00 | 0.00 | 38 | 1011.1 |
| 20260508203335 | 67 | 12 | 0.0 | 4.0 | 0.00 | 0.00 | 0.00 | 38 | 1011.2 |
| 20260508202316 | 68 | 162 | 1.0 | 7.0 | 0.00 | 0.00 | 0.00 | 37 | 1011.1 |
| 20260508201316 | 69 | 255 | 1.0 | 6.0 | 0.00 | 0.00 | 0.00 | 39 | 1011.1 |
| 20260508200312 | 67 | 222 | 1.0 | 4.0 | 0.00 | 0.00 | 0.00 | 39 | 1011.2 |
| 20260508195317 | 66 | 225 | 0.0 | 3.0 | 0.00 | 0.00 | 0.00 | 37 | 1011.3 |
| 20260508194320 | 67 | 342 | 0.0 | 7.0 | 0.00 | 0.00 | 0.00 | 38 | 1011.4 |
| 20260508193315 | 67 | 324 | 1.0 | 4.0 | 0.00 | 0.00 | 0.00 | 37 | 1011.4 |
| 20260508192319 | 67 | 143 | 1.0 | 5.0 | 0.00 | 0.00 | 0.00 | 36 | 1011.4 |
| 20260508191315 | 68 | 136 | 0.0 | 7.0 | 0.00 | 0.00 | 0.00 | 35 | 1011.4 |
| 20260508190316 | 70 | 181 | 0.0 | 5.0 | 0.00 | 0.00 | 0.00 | 35 | 1011.4 |
| 20260508185318 | 69 | 235 | 2.0 | 5.0 | 0.00 | 0.00 | 0.00 | 35 | 1011.6 |
| 20260508184310 | 69 | 294 | 1.0 | 7.0 | 0.00 | 0.00 | 0.00 | 35 | 1011.7 |
| 20260508183331 | 69 | 150 | 2.0 | 10.0 | 0.00 | 0.00 | 0.00 | 33 | 1011.7 |
| 20260508182311 | 69 | 10 | 2.0 | 10.0 | 0.00 | 0.00 | 0.00 | 34 | 1011.8 |
| 20260508181333 | 69 | 269 | 2.0 | 7.0 | 0.00 | 0.00 | 0.00 | 34 | 1012.0 |
| 20260508180332 | 69 | 89 | 1.0 | 5.0 | 0.00 | 0.00 | 0.00 | 36 | 1012.2 |
| 20260508175334 | 67 | 278 | 0.0 | 5.0 | 0.00 | 0.00 | 0.00 | 37 | 1012.3 |
| 20260508174333 | 66 | 148 | 0.0 | 8.0 | 0.00 | 0.00 | 0.00 | 36 | 1012.6 |
| 20260508173311 | 67 | 14 | 1.0 | 7.0 | 0.00 | 0.00 | 0.00 | 35 | 1012.5 |
| 20260508172309 | 68 | 46 | 2.0 | 7.0 | 0.00 | 0.00 | 0.00 | 36 | 1012.6 |
| 20260508171310 | 68 | 358 | 1.0 | 8.0 | 0.00 | 0.00 | 0.00 | 37 | 1012.5 |
| 20260508170315 | 68 | 217 | 2.0 | 11.0 | 0.00 | 0.00 | 0.00 | 35 | 1012.5 |
| 20260508165311 | 68 | 7 | 1.0 | 7.0 | 0.00 | 0.00 | 0.00 | 36 | 1012.4 |
| 20260508164340 | 67 | 91 | 1.0 | 5.0 | 0.00 | 0.00 | 0.00 | 36 | 1012.6 |
| 20260508163313 | 66 | 285 | 1.0 | 10.0 | 0.00 | 0.00 | 0.00 | 41 | 1012.9 |
| 20260508162315 | 66 | 299 | 3.0 | 10.0 | 0.00 | 0.00 | 0.00 | 36 | 1013.2 |
| 20260508161316 | 68 | 247 | 1.0 | 7.0 | 0.00 | 0.00 | 0.00 | 36 | 1013.3 |
| 20260508160313 | 68 | 142 | 2.0 | 8.0 | 0.00 | 0.00 | 0.00 | 34 | 1013.5 |
| 20260508155333 | 67 | 254 | 1.0 | 9.0 | 0.00 | 0.00 | 0.00 | 36 | 1013.6 |
| 20260508154314 | 68 | 75 | 2.0 | 8.0 | 0.00 | 0.00 | 0.00 | 37 | 1013.8 |
| 20260508153312 | 66 | 279 | 1.0 | 6.0 | 0.00 | 0.00 | 0.00 | 37 | 1013.8 |
| 20260508152308 | 63 | 224 | 0.0 | 7.0 | 0.00 | 0.00 | 0.00 | 39 | 1014.0 |
| 20260508151335 | 66 | 146 | 1.0 | 5.0 | 0.00 | 0.00 | 0.00 | 36 | 1013.9 |
| 20260508150325 | 65 | 323 | 2.0 | 8.0 | 0.00 | 0.00 | 0.00 | 37 | 1014.0 |
| 20260508145323 | 63 | 217 | 0.0 | 4.0 | 0.00 | 0.00 | 0.00 | 40 | 1014.0 |
| 20260508144311 | 62 | 311 | 1.0 | 5.0 | 0.00 | 0.00 | 0.00 | 39 | 1014.1 |
| 20260508143352 | 62 | 124 | 2.0 | 5.0 | 0.00 | 0.00 | 0.00 | 38 | 1014.2 |
| 20260508142334 | 62 | 126 | 1.0 | 4.0 | 0.00 | 0.00 | 0.00 | 39 | 1014.2 |
| 20260508141334 | 61 | 79 | 1.0 | 5.0 | 0.00 | 0.00 | 0.00 | 40 | 1014.2 |
| 20260508140356 | 60 | 30 | 1.0 | 6.0 | 0.00 | 0.00 | 0.00 | 45 | 1014.2 |
| 20260508135335 | 59 | 309 | 1.0 | 3.0 | 0.00 | 0.00 | 0.00 | 44 | 1014.3 |
| 20260508134328 | 59 | 156 | 0.0 | 3.0 | 0.00 | 0.00 | 0.00 | 45 | 1014.3 |
| 20260508133333 | 59 | 335 | 1.0 | 3.0 | 0.00 | 0.00 | 0.00 | 42 | 1014.4 |
| 20260508132334 | 58 | 245 | 0.0 | 6.0 | 0.00 | 0.00 | 0.00 | 43 | 1014.4 |
| 20260508131313 | 58 | 165 | 0.0 | 2.0 | 0.00 | 0.00 | 0.00 | 46 | 1014.5 |
| 20260508130334 | 57 | 20 | 2.0 | 4.0 | 0.00 | 0.00 | 0.00 | 49 | 1014.6 |
| 20260508125353 | 57 | 302 | 0.0 | 3.0 | 0.00 | 0.00 | 0.00 | 53 | 1014.4 |
| 20260508124324 | 55 | 8 | 0.0 | 6.0 | 0.00 | 0.00 | 0.00 | 57 | 1014.5 |
| 20260508123326 | 55 | 32 | 1.0 | 5.0 | 0.00 | 0.00 | 0.00 | 58 | 1014.6 |
| 20260508122326 | 54 | 342 | 1.0 | 3.0 | 0.00 | 0.00 | 0.00 | 64 | 1014.5 |
| 20260508121347 | 53 | 330 | 1.0 | 5.0 | 0.00 | 0.00 | 0.00 | 68 | 1014.5 |
| 20260508120318 | 52 | 356 | 1.0 | 2.0 | 0.00 | 0.00 | 0.00 | 71 | 1014.2 |
| 20260508115322 | 50 | 353 | 0.0 | 4.0 | 0.00 | 0.00 | 0.00 | 76 | 1014.2 |
| 20260508114321 | 49 | 13 | 1.0 | 3.0 | 0.00 | 0.00 | 0.00 | 78 | 1014.0 |
| 20260508113327 | 48 | 126 | 0.0 | 2.0 | 0.00 | 0.00 | 0.00 | 81 | 1014.2 |
| 20260508112332 | 47 | 30 | 0.0 | 1.0 | 0.00 | 0.00 | 0.00 | 84 | 1014.3 |